| time (UTC) | temp C | wind direction | speed KPH | gust KPH | rain 1hr cm | rain 24hr cm | rain mn cm | humidity % | barometer mb |
| 20260504081538 | 9 | 29 | 0.0 | 0.0 | 0.00 | 0.00 | 0.00 | 53 | 1005.0 |
| 20260504050004 | 12 | 24 | 0.0 | 0.0 | 0.00 | 0.00 | 0.00 | 47 | 1007.2 |
| 20260504044501 | 12 | 22 | 0.0 | 3.2 | 0.00 | 0.00 | 0.00 | 46 | 1007.3 |
| 20260504043059 | 12 | 21 | 0.0 | 0.0 | 0.00 | 0.00 | 0.00 | 44 | 1007.6 |
| 20260504041601 | 13 | 21 | 0.0 | 0.0 | 0.00 | 0.00 | 0.00 | 42 | 1007.8 |
| 20260504040055 | 13 | 20 | 0.0 | 0.0 | 0.00 | 0.00 | 0.00 | 42 | 1008.0 |
| 20260504034554 | 13 | 20 | 0.0 | 1.6 | 0.00 | 0.00 | 0.00 | 41 | 1008.2 |
| 20260504033053 | 14 | 19 | 0.0 | 1.6 | 0.00 | 0.00 | 0.00 | 39 | 1008.3 |
| 20260504031552 | 15 | 19 | 0.0 | 1.6 | 0.00 | 0.00 | 0.00 | 37 | 1008.5 |
| 20260504030052 | 15 | 19 | 0.0 | 3.2 | 0.00 | 0.00 | 0.00 | 35 | 1008.5 |
| 20260504024604 | 16 | 19 | 0.0 | 3.2 | 0.00 | 0.00 | 0.00 | 34 | 1008.6 |
| 20260504023051 | 16 | 21 | 0.0 | 0.0 | 0.00 | 0.00 | 0.00 | 33 | 1008.6 |
| 20260504021548 | 17 | 19 | 0.0 | 0.0 | 0.00 | 0.00 | 0.00 | 30 | 1008.7 |
| 20260504020047 | 17 | 18 | 0.0 | 1.6 | 0.00 | 0.00 | 0.00 | 29 | 1008.8 |
| 20260504014547 | 18 | 18 | 1.6 | 3.2 | 0.00 | 0.00 | 0.00 | 28 | 1008.8 |
| 20260504013045 | 20 | 18 | 0.0 | 0.0 | 0.00 | 0.00 | 0.00 | 24 | 1008.8 |
| 20260504011545 | 21 | 284 | 0.0 | 0.0 | 0.00 | 0.00 | 0.00 | 22 | 1008.9 |
| 20260504010042 | 22 | 317 | 0.0 | 1.6 | 0.00 | 0.00 | 0.00 | 20 | 1009.0 |
| 20260504004546 | 22 | 318 | 1.6 | 8.0 | 0.00 | 0.00 | 0.00 | 20 | 1009.2 |
| 20260504003043 | 22 | 360 | 6.4 | 12.9 | 0.00 | 0.00 | 0.00 | 20 | 1009.4 |
| 20260504001541 | 22 | 336 | 6.4 | 14.5 | 0.00 | 0.00 | 0.00 | 19 | 1009.5 |
| 20260504000053 | 22 | 355 | 8.0 | 17.7 | 0.00 | 0.00 | 0.00 | 18 | 1009.6 |
| 20260503234537 | 22 | 300 | 9.7 | 19.3 | 0.00 | 0.00 | 0.00 | 18 | 1009.8 |
| 20260503233031 | 22 | 360 | 11.3 | 29.0 | 0.00 | 0.00 | 0.00 | 17 | 1009.9 |
| 20260503231529 | 23 | 22 | 11.3 | 25.7 | 0.00 | 0.00 | 0.00 | 17 | 1010.0 |
| 20260503230026 | 22 | 360 | 14.5 | 24.1 | 0.00 | 0.00 | 0.00 | 17 | 1010.1 |
| 20260503224525 | 23 | 355 | 16.1 | 30.6 | 0.00 | 0.00 | 0.00 | 16 | 1010.1 |
| 20260503223023 | 23 | 360 | 11.3 | 25.7 | 0.00 | 0.00 | 0.00 | 18 | 1010.3 |
| 20260503221520 | 23 | 355 | 9.7 | 22.5 | 0.00 | 0.00 | 0.00 | 18 | 1010.3 |
| 20260503220017 | 23 | 355 | 8.0 | 24.1 | 0.00 | 0.00 | 0.00 | 19 | 1010.5 |
| 20260503214515 | 23 | 323 | 12.9 | 27.4 | 0.00 | 0.00 | 0.00 | 18 | 1010.6 |
| 20260503213013 | 23 | 317 | 6.4 | 25.7 | 0.00 | 0.00 | 0.00 | 20 | 1010.7 |
| 20260503211512 | 23 | 26 | 11.3 | 25.7 | 0.00 | 0.00 | 0.00 | 17 | 1010.9 |
| 20260503210009 | 22 | 360 | 12.9 | 24.1 | 0.00 | 0.00 | 0.00 | 18 | 1011.0 |
| 20260503204507 | 23 | 22 | 9.7 | 25.7 | 0.00 | 0.00 | 0.00 | 18 | 1011.1 |
| 20260503203015 | 23 | 46 | 9.7 | 20.9 | 0.00 | 0.00 | 0.00 | 19 | 1011.2 |
| 20260503201504 | 23 | 327 | 9.7 | 20.9 | 0.00 | 0.00 | 0.00 | 18 | 1011.3 |
| 20260503200004 | 22 | 360 | 22.5 | 32.2 | 0.00 | 0.00 | 0.00 | 19 | 1011.7 |
| 20260503194502 | 23 | 360 | 14.5 | 25.7 | 0.00 | 0.00 | 0.00 | 19 | 1011.6 |
| 20260503193100 | 22 | 44 | 9.7 | 19.3 | 0.00 | 0.00 | 0.00 | 19 | 1011.8 |
| 20260503191604 | 22 | 310 | 14.5 | 22.5 | 0.00 | 0.00 | 0.00 | 19 | 1012.0 |
| 20260503190056 | 22 | 5 | 11.3 | 24.1 | 0.00 | 0.00 | 0.00 | 18 | 1012.0 |
| 20260503184555 | 22 | 360 | 8.0 | 24.1 | 0.00 | 0.00 | 0.00 | 20 | 1012.3 |
| 20260503183053 | 22 | 329 | 8.0 | 29.0 | 0.00 | 0.00 | 0.00 | 20 | 1012.3 |
| 20260503181601 | 21 | 360 | 19.3 | 27.4 | 0.00 | 0.00 | 0.00 | 21 | 1012.6 |
| 20260503180050 | 21 | 33 | 17.7 | 32.2 | 0.00 | 0.00 | 0.00 | 22 | 1012.9 |
| 20260503174547 | 21 | 5 | 17.7 | 30.6 | 0.00 | 0.00 | 0.00 | 21 | 1013.1 |
| 20260503173055 | 21 | 34 | 11.3 | 25.7 | 0.00 | 0.00 | 0.00 | 22 | 1013.1 |
| 20260503171542 | 21 | 25 | 11.3 | 29.0 | 0.00 | 0.00 | 0.00 | 22 | 1013.3 |